Regional Weather Roundup
Issued by NWS Kansas City/Pleasant Hill, MO

Home | Current Version | Previous Version | Text Only | Print | Product List | Glossary On
Versions: 1 2 3 4 5 6 7 8 9 10 11 12 13 14 15 16 17 18 19 20 21 22 23 24 25 26 27 28 29 30 31 32 33 34 35 36 37 38 39 40 41 42 43 44 45 46 47 48 49 50
259
ASUS43 KEAX 231710
RWREAX

WEATHER ROUNDUP FOR EASTERN KANSAS AND NORTHWEST MISSOURI
NATIONAL WEATHER SERVICE KANSAS CITY/PLEASANT HILL MO
1200 PM CDT SUN JUL 23 2017

KSZ040-057-103>105-MOZ028-029-037-043-231800-
...KANSAS CITY METROPOLITAN AREA...

CITY           SKY/WX    TMP DP  RH WIND       PRES   REMARKS
K.C. INTL      MOSUNNY   87  72  60 VRB5      29.94S HX  93
K.C. DOWNTOWN  SUNNY     87  74  64 NE6       29.92F HX  95
LEES SUMMIT    CLOUDY    85  73  67 N6        29.94F HX  91
OLATHE - IXD   SUNNY     83  72  69 CALM      29.95S
OLATHE - OJC   SUNNY     84  71  65 N7        29.95S
LAWRENCE       SUNNY     88  74  63 N6        29.93F HX  96

$$

MOZ001>008-011>017-020>025-030>033-038>040-044>046-053-054-231800-
...NORTHERN AND CENTRAL MISSOURI...

CITY           SKY/WX    TMP DP  RH WIND       PRES   REMARKS
ST. JOSEPH     SUNNY     86  77  74 N8        29.93F HX  97
MOSBY          SUNNY     84  72  65 N3        29.93S
WHITEMAN AFB   PTSUNNY   84  70  63 NW7       29.94R
CLINTON        MOSUNNY   82  72  69 W6        29.96R
SEDALIA        CLOUDY    82  75  79 SW5       29.96S
WARSAW         NOT AVBL
CHILLICOTHE      N/A     88  77  69 VRB3      29.92S HX 100
KIRKSVILLE     SUNNY     90  73  57 W9        29.92S HX  98

$$

MOZ041-047>049-056>058-063>065-088>090-097-231800-
...EASTERN AND SOUTHERN MISSOURI...

CITY           SKY/WX    TMP DP  RH WIND       PRES   REMARKS
ST. LOUIS INTL PTSUNNY   84  66  54 SW7       29.93F
SPIRIT OF STL  CLOUDY    82  70  66 SW12      29.92S
COLUMBIA       CLOUDY    81  68  64 SW5       29.95S
JEFFERSON CITY CLOUDY    84  71  65 CALM      29.93F
ROLLA          PTSUNNY   80  67  64 N3        29.96F
OSAGE BEACH    CLOUDY    83  67  58 W6        29.96R
SPRINGFIELD    CLOUDY    87  66  49 NW8       29.97S
BRANSON        PTSUNNY   91  66  43 E10G16    29.97F HX  94
JOPLIN         CLOUDY    85  72  65 NE5       29.98S HX  91
WEST PLAINS    MOSUNNY   92  63  38 NE5       29.96F HX  93

$$

IAZ060-094-KSZ022-034>040-054-083-096-NEZ052-066-093-231800-
...KANSAS...SOUTHEAST NEBRASKA AND IOWA...

CITY           SKY/WX    TMP DP  RH WIND       PRES   REMARKS
TOPEKA         SUNNY     88  76  67 N8        29.93F HX  99
MANHATTAN      SUNNY     88  67  49 N7        29.95F HX  91
EMPORIA        SUNNY     87  69  54 NW7       29.96R HX  91
CHANUTE        PTSUNNY   80  70  71 SE5       29.98S
WICHITA        MOSUNNY   87  72  60 NE7       29.98R HX  93
OMAHA          MOSUNNY   88  67  49 VRB7      29.96S HX  91
LINCOLN        SUNNY     85  70  60 NW7       29.99S
FALLS CITY     MOSUNNY   85  77  77 NW8       29.95S HX  95
LAMONI         SUNNY     88  72  58 NW12      29.93S HX  94
DES MOINES     MOSUNNY   87  59  38 NW14      29.91S

$$





USA.gov is the U.S. government's official web portal to all federal, state and local government web resources and services.